468  
NZUS99 KDVN 202210  
HRRRRR  
HOURLY WEATHER ROUNDUP  
NATIONAL WEATHER SERVICE QUAD CITIES IA IL  
400 PM CST TUE FEB 20 2018  
 
NOTE: "FAIR" INDICATES FEW OR NO CLOUDS BELOW 12,000 FEET WITH  
NO SIGNIFICANT WEATHER AND/OR OBSTRUCTIONS TO VISIBILITY.  
------------------------------------------------------------------  
 
CITY SKY/WX TMP DP RH WIND PRES REMARKS  
BURLINGTON MIX PCPN 32 28 85 NW13G20 30.07R WCI 22  
CEDAR RAPIDS CLOUDY 27 22 81 NW23 30.05R WCI 12  
DAVENPORT CLOUDY 33 27 78 W16 30.05R WCI 23  
DUBUQUE CLOUDY 29 24 82 NW17 29.99R WCI 17  
IOWA CITY CLOUDY 30 23 75 NW18 30.09R WCI 18  
MOLINE MIX PCPN 34 31 88 W13 30.04R WCI 25  
------------------------------------------------------------------  
THE STATIONS BELOW ARE NOT NWS STATIONS AND ARE NOT SUBJECT TO NWS  
QUALITY CONTROL. SOME STATIONS DO NOT REPORT WEATHER SUCH AS FOG.  
* - STATIONS THAT REPORT TMP AND DP IN WHOLE DEGREES CELSIUS, WHICH  
ARE THEN CONVERTED TO FAHRENHEIT.  
------------------------------------------------------------------  
 
CITY SKY/WX TMP DP RH WIND PRES REMARKS  
CLINTON N/A 32 29 88 W17 30.03 WCI 21  
FAIRFIELD * CLOUDY 28 23 80 NW18G24 30.09R WCI 16  
FORT MADISON * MIX PCPN 30 28 93 NW16 30.08R WCI 19  
FREEPORT CLOUDY 32 32 100 W10 29.99R WCI 24  
INDEPENDENCE * CLOUDY 24 20 85 NW22 30.05R WCI 9  
KEOKUK * RAIN 32 30 93 NW14G20 30.08R WCI 22  
MACOMB LGT RAIN 35 35 99 NW14 30.08R WCI 26  
MONTICELLO * CLOUDY 28 23 80 W21 30.03R WCI 15  
MT PLEASANT CLOUDY 30 28 93 NW13 30.09R WCI 20  
MUSCATINE * CLOUDY 32 27 80 NW13G21 30.09R WCI 22  
SAVANNA CLOUDY 33 29 86 W13 30.02R WCI 24  
STERLING/R.F. N/A N/A N/A N/A MISG N/A  
VINTON * CLOUDY 26 20 76 NW17G23 30.08R WCI 13  
WASHINGTON * CLOUDY 28 28 100 NW18G25 30.10R WCI 16  
------------------------------------------------------------------  
 
 
CLICK HERE TO GO TO PREVIOUS BULLETINS.

The Nexlab IL Page
The Nexlab IA Page
The Nexlab MO Page Main Text Page